{"data":{"norad_id":57919,"intl_designator":"2023-147G","name":"STARLINK-30496","alt_names":[],"object_type":"PAYLOAD","status":"ACTIVE","operator":null,"country":"US","launch_date":"2023-09-24","launch_site_code":"AFETR","launch_vehicle":null,"mission":null,"orbit_class":"UNKNOWN","rcs_meters":null,"size_class":null,"mass_kg":null,"dimensions":null,"purposes":["comms"],"wikipedia_slug":null,"has_3d_model":false,"image_url":null,"decayed_at":null,"tle_current":{"epoch":"2026-05-25T00:47:06.239040Z","epoch_age_seconds":68400,"freshness":"FRESH","line1":"1 57919U 23147G   26145.03271110 -.00000067  00000+0  70802-5 0  9996","line2":"2 57919  43.0037 254.0671 0001503 270.1991  89.8689 15.27585523148300","mean_motion":15.27585523,"eccentricity":0.0001503,"inclination_deg":43.0037,"raan_deg":254.0671,"arg_perigee_deg":270.1991,"mean_anomaly_deg":89.8689,"bstar":7.0802e-6,"rev_number":14830,"period_min":94.266407891324,"perigee_km":482.00132445599,"apogee_km":484.06379202519,"semimajor_km":6861.1695582406,"source":"CELESTRAK","updated_at":"2026-05-25T13:38:18.457415Z"}}}